Time,TemperatureF,DewpointF,PressureIn,WindDirection,WindDirectionDegrees,WindSpeedMPH,WindSpeedGustMPH,Humidity,HourlyPrecipIn,Conditions,Clouds,dailyrainin,SoftwareType,DateUTC
2014-03-02 00:05:00,19.7,17.5,30.22,NE,38,5.0,5.0,91,0.00,,,0.00,Wunderground v.1.15,2014-03-02 05:05:00,
2014-03-02 00:15:00,19.5,17.3,30.22,North,350,4.0,4.0,91,0.00,,,0.00,Wunderground v.1.15,2014-03-02 05:15:00,
2014-03-02 00:20:00,19.4,17.2,30.22,North,349,4.0,4.0,91,0.00,,,0.00,Wunderground v.1.15,2014-03-02 05:20:00,
2014-03-02 00:25:00,19.3,17.1,30.22,NNE,24,3.0,4.0,91,0.00,,,0.00,Wunderground v.1.15,2014-03-02 05:25:00,
2014-03-02 00:35:00,19.3,17.1,30.22,North,360,3.0,4.0,91,0.00,,,0.00,Wunderground v.1.15,2014-03-02 05:35:00,
2014-03-02 00:40:00,19.2,17.0,30.22,NE,46,3.0,3.0,91,0.00,,,0.00,Wunderground v.1.15,2014-03-02 05:40:00,
2014-03-02 00:45:00,19.1,16.9,30.22,NNE,28,3.0,3.0,91,0.00,,,0.00,Wunderground v.1.15,2014-03-02 05:45:00,
2014-03-02 00:55:00,19.2,17.0,30.22,NE,39,1.0,3.0,91,0.00,,,0.00,Wunderground v.1.15,2014-03-02 05:55:00,
2014-03-02 01:00:00,19.2,17.0,30.23,North,360,1.0,3.0,91,0.00,,,0.00,Wunderground v.1.15,2014-03-02 06:00:00,
2014-03-02 01:05:00,19.3,17.1,30.23,NNE,32,2.0,3.0,91,0.00,,,0.00,Wunderground v.1.15,2014-03-02 06:05:00,
2014-03-02 01:15:00,19.4,17.5,30.22,NNE,19,1.0,2.0,92,0.00,,,0.00,Wunderground v.1.15,2014-03-02 06:15:00,
2014-03-02 01:20:00,19.2,17.0,30.22,North,360,2.0,2.0,91,0.00,,,0.00,Wunderground v.1.15,2014-03-02 06:20:00,
2014-03-02 01:30:00,18.9,16.7,30.22,NNW,348,3.0,3.0,91,0.00,,,0.00,Wunderground v.1.15,2014-03-02 06:30:00,
2014-03-02 01:35:00,18.9,16.7,30.22,NE,51,3.0,3.0,91,0.00,,,0.00,Wunderground v.1.15,2014-03-02 06:35:00,
2014-03-02 01:45:00,18.8,16.6,30.22,NNW,346,2.0,2.0,91,0.00,,,0.00,Wunderground v.1.15,2014-03-02 06:45:00,
2014-03-02 01:50:00,18.9,16.7,30.22,NNW,346,1.0,2.0,91,0.00,,,0.00,Wunderground v.1.15,2014-03-02 06:50:00,
2014-03-02 01:55:00,18.8,16.6,30.21,North,355,2.0,4.0,91,0.00,,,0.00,Wunderground v.1.15,2014-03-02 06:55:00,
2014-03-02 02:05:00,18.7,16.5,30.21,NNE,29,3.0,6.0,91,0.00,,,0.00,Wunderground v.1.15,2014-03-02 07:05:00,
2014-03-02 02:15:00,18.6,16.4,30.20,NE,37,1.0,2.0,91,0.00,,,0.00,Wunderground v.1.15,2014-03-02 07:15:00,
2014-03-02 02:20:00,18.6,16.4,30.20,NE,38,1.0,1.0,91,0.00,,,0.00,Wunderground v.1.15,2014-03-02 07:20:00,
2014-03-02 02:25:00,18.6,16.4,30.20,NE,38,0.0,1.0,91,0.00,,,0.00,Wunderground v.1.15,2014-03-02 07:25:00,
2014-03-02 02:35:00,18.7,16.5,30.20,NE,37,1.0,1.0,91,0.00,,,0.00,Wunderground v.1.15,2014-03-02 07:35:00,
2014-03-02 02:40:00,18.8,16.6,30.21,NE,38,1.0,1.0,91,0.00,,,0.00,Wunderground v.1.15,2014-03-02 07:40:00,
2014-03-02 02:45:00,18.8,16.6,30.21,NE,38,0.0,1.0,91,0.00,,,0.00,Wunderground v.1.15,2014-03-02 07:45:00,
2014-03-02 02:55:00,18.7,16.5,30.20,NNW,342,2.0,3.0,91,0.00,,,0.00,Wunderground v.1.15,2014-03-02 07:55:00,
2014-03-02 03:00:00,18.7,16.5,30.20,NNW,342,1.0,4.0,91,0.00,,,0.00,Wunderground v.1.15,2014-03-02 08:00:00,
2014-03-02 03:05:00,18.6,16.4,30.21,NNW,348,2.0,4.0,91,0.00,,,0.00,Wunderground v.1.15,2014-03-02 08:05:00,
2014-03-02 03:15:00,18.4,16.2,30.21,NNE,32,3.0,4.0,91,0.00,,,0.00,Wunderground v.1.15,2014-03-02 08:15:00,
2014-03-02 03:20:00,18.3,16.1,30.22,NNE,26,3.0,3.0,91,0.00,,,0.00,Wunderground v.1.15,2014-03-02 08:20:00,
2014-03-02 03:30:00,18.1,15.9,30.21,ENE,57,1.0,1.0,91,0.00,,,0.00,Wunderground v.1.15,2014-03-02 08:30:00,
2014-03-02 03:35:00,18.1,15.9,30.21,North,355,1.0,6.0,91,0.00,,,0.00,Wunderground v.1.15,2014-03-02 08:35:00,
2014-03-02 03:40:00,17.9,15.7,30.21,NNE,12,3.0,4.0,91,0.00,,,0.00,Wunderground v.1.15,2014-03-02 08:40:00,
2014-03-02 03:45:00,17.7,15.5,30.21,NNE,30,5.0,5.0,91,0.00,,,0.00,Wunderground v.1.15,2014-03-02 08:45:00,
2014-03-02 03:55:00,17.5,15.3,30.23,NE,35,3.0,5.0,91,0.00,,,0.00,Wunderground v.1.15,2014-03-02 08:55:00,
2014-03-02 04:00:00,17.5,15.3,30.23,North,11,3.0,3.0,91,0.00,,,0.00,Wunderground v.1.15,2014-03-02 09:00:00,
2014-03-02 04:05:00,17.5,15.3,30.23,North,5,2.0,3.0,91,0.00,,,0.00,Wunderground v.1.15,2014-03-02 09:05:00,
2014-03-02 04:15:00,17.4,15.2,30.24,NNE,12,3.0,4.0,91,0.00,,,0.00,Wunderground v.1.15,2014-03-02 09:15:00,
2014-03-02 04:25:00,17.3,15.1,30.24,North,9,2.0,4.0,91,0.00,,,0.00,Wunderground v.1.15,2014-03-02 09:25:00,
2014-03-02 04:30:00,17.0,14.8,30.24,NE,50,2.0,2.0,91,0.00,,,0.00,Wunderground v.1.15,2014-03-02 09:30:00,
2014-03-02 04:35:00,16.9,14.7,30.24,North,355,2.0,2.0,91,0.00,,,0.00,Wunderground v.1.15,2014-03-02 09:35:00,
2014-03-02 04:45:00,16.4,14.2,30.23,North,360,4.0,6.0,91,0.00,,,0.00,Wunderground v.1.15,2014-03-02 09:45:00,
2014-03-02 04:50:00,16.3,13.9,30.23,NNE,28,4.0,4.0,90,0.00,,,0.00,Wunderground v.1.15,2014-03-02 09:50:00,
2014-03-02 04:55:00,16.1,13.7,30.23,NNE,28,4.0,6.0,90,0.00,,,0.00,Wunderground v.1.15,2014-03-02 09:55:00,
2014-03-02 05:00:00,16.0,13.6,30.23,NNE,25,3.0,4.0,90,0.00,,,0.00,Wunderground v.1.15,2014-03-02 10:00:00,
2014-03-02 05:05:00,15.9,13.5,30.22,NNE,32,4.0,7.0,90,0.00,,,0.00,Wunderground v.1.15,2014-03-02 10:05:00,
2014-03-02 05:15:00,15.7,13.3,30.23,NNE,19,4.0,4.0,90,0.00,,,0.00,Wunderground v.1.15,2014-03-02 10:15:00,
2014-03-02 05:20:00,15.6,13.2,30.23,NNW,345,4.0,7.0,90,0.00,,,0.00,Wunderground v.1.15,2014-03-02 10:20:00,
2014-03-02 05:25:00,15.4,13.0,30.23,NNE,25,4.0,7.0,90,0.00,,,0.00,Wunderground v.1.15,2014-03-02 10:25:00,
2014-03-02 05:30:00,15.2,12.8,30.24,NNW,335,5.0,5.0,90,0.00,,,0.00,Wunderground v.1.15,2014-03-02 10:30:00,
2014-03-02 05:40:00,14.9,12.5,30.23,NE,51,5.0,5.0,90,0.00,,,0.00,Wunderground v.1.15,2014-03-02 10:40:00,
2014-03-02 05:45:00,14.9,12.5,30.24,North,5,5.0,5.0,90,0.00,,,0.00,Wunderground v.1.15,2014-03-02 10:45:00,
2014-03-02 05:50:00,14.8,12.4,30.24,NNE,28,5.0,5.0,90,0.00,,,0.00,Wunderground v.1.15,2014-03-02 10:50:00,
2014-03-02 06:00:00,14.6,12.2,30.25,NNE,14,5.0,5.0,90,0.00,,,0.00,Wunderground v.1.15,2014-03-02 11:00:00,
2014-03-02 06:05:00,14.5,12.1,30.26,NE,46,4.0,5.0,90,0.00,,,0.00,Wunderground v.1.15,2014-03-02 11:05:00,
2014-03-02 06:15:00,14.3,11.9,30.26,NE,38,4.0,7.0,90,0.00,,,0.00,Wunderground v.1.15,2014-03-02 11:15:00,
2014-03-02 06:20:00,14.2,11.8,30.26,NE,39,3.0,5.0,90,0.00,,,0.00,Wunderground v.1.15,2014-03-02 11:20:00,
2014-03-02 06:25:00,14.1,11.7,30.25,NE,53,3.0,5.0,90,0.00,,,0.00,Wunderground v.1.15,2014-03-02 11:25:00,
2014-03-02 06:35:00,13.9,11.5,30.25,NNE,25,3.0,5.0,90,0.00,,,0.00,Wunderground v.1.15,2014-03-02 11:35:00,
2014-03-02 06:40:00,13.8,11.4,30.26,NNE,18,2.0,4.0,90,0.00,,,0.00,Wunderground v.1.15,2014-03-02 11:40:00,
2014-03-02 06:45:00,13.6,11.2,30.26,NE,37,4.0,4.0,90,0.00,,,0.00,Wunderground v.1.15,2014-03-02 11:45:00,
2014-03-02 06:55:00,13.3,10.9,30.26,NE,40,4.0,5.0,90,0.00,,,0.00,Wunderground v.1.15,2014-03-02 11:55:00,
2014-03-02 07:00:00,13.2,10.8,30.27,North,9,3.0,3.0,90,0.00,,,0.00,Wunderground v.1.15,2014-03-02 12:00:00,
2014-03-02 07:05:00,13.0,10.6,30.26,NNE,27,3.0,3.0,90,0.00,,,0.00,Wunderground v.1.15,2014-03-02 12:05:00,
2014-03-02 07:15:00,12.7,10.3,30.26,North,11,4.0,8.0,90,0.00,,,0.00,Wunderground v.1.15,2014-03-02 12:15:00,
2014-03-02 07:20:00,12.5,10.1,30.27,North,9,5.0,5.0,90,0.00,,,0.00,Wunderground v.1.15,2014-03-02 12:20:00,
2014-03-02 07:25:00,12.4,10.0,30.27,NNE,21,4.0,5.0,90,0.00,,,0.00,Wunderground v.1.15,2014-03-02 12:25:00,
2014-03-02 07:35:00,12.3,9.9,30.27,NE,46,3.0,5.0,90,0.00,,,0.00,Wunderground v.1.15,2014-03-02 12:35:00,
2014-03-02 07:40:00,12.3,9.9,30.27,NE,48,3.0,3.0,90,0.00,,,0.00,Wunderground v.1.15,2014-03-02 12:40:00,
2014-03-02 07:45:00,12.3,9.9,30.26,NNE,24,3.0,3.0,90,0.00,,,0.00,Wunderground v.1.15,2014-03-02 12:45:00,
2014-03-02 07:55:00,12.3,9.9,30.26,NNE,29,3.0,3.0,90,0.00,,,0.00,Wunderground v.1.15,2014-03-02 12:55:00,
2014-03-02 08:00:00,12.3,9.9,30.27,NNE,21,2.0,4.0,90,0.00,,,0.00,Wunderground v.1.15,2014-03-02 13:00:00,
2014-03-02 08:05:00,12.3,9.9,30.27,NNW,340,3.0,4.0,90,0.00,,,0.00,Wunderground v.1.15,2014-03-02 13:05:00,
2014-03-02 08:15:00,12.1,9.7,30.27,NNE,30,3.0,7.0,90,0.00,,,0.00,Wunderground v.1.15,2014-03-02 13:15:00,
2014-03-02 08:25:00,12.1,9.7,30.27,NE,46,2.0,2.0,90,0.00,,,0.00,Wunderground v.1.15,2014-03-02 13:25:00,
2014-03-02 08:30:00,12.0,9.6,30.27,NNE,30,3.0,3.0,90,0.00,,,0.00,Wunderground v.1.15,2014-03-02 13:30:00,
2014-03-02 08:35:00,11.9,9.5,30.27,NNE,32,4.0,5.0,90,0.00,,,0.00,Wunderground v.1.15,2014-03-02 13:35:00,
2014-03-02 08:40:00,11.8,9.4,30.26,NNE,21,4.0,4.0,90,0.00,,,0.00,Wunderground v.1.15,2014-03-02 13:40:00,
2014-03-02 08:50:00,11.7,9.3,30.26,ENE,63,4.0,4.0,90,0.00,,,0.00,Wunderground v.1.15,2014-03-02 13:50:00,
2014-03-02 08:55:00,11.5,8.9,30.26,NE,40,5.0,6.0,89,0.00,,,0.00,Wunderground v.1.15,2014-03-02 13:55:00,
2014-03-02 09:00:00,11.4,8.8,30.26,NE,53,5.0,5.0,89,0.00,,,0.00,Wunderground v.1.15,2014-03-02 14:00:00,
2014-03-02 09:05:00,11.4,8.8,30.26,NNE,30,5.0,5.0,89,0.00,,,0.00,Wunderground v.1.15,2014-03-02 14:05:00,
2014-03-02 09:15:00,11.6,9.2,30.25,NE,38,4.0,5.0,90,0.00,,,0.00,Wunderground v.1.15,2014-03-02 14:15:00,
2014-03-02 09:25:00,11.8,9.4,30.26,North,5,3.0,7.0,90,0.00,,,0.00,Wunderground v.1.15,2014-03-02 14:25:00,
2014-03-02 09:30:00,11.8,9.4,30.26,NE,34,3.0,3.0,90,0.00,,,0.00,Wunderground v.1.15,2014-03-02 14:30:00,
2014-03-02 09:40:00,11.7,9.1,30.25,NNE,33,4.0,4.0,89,0.00,,,0.00,Wunderground v.1.15,2014-03-02 14:40:00,
2014-03-02 09:45:00,11.6,9.0,30.25,NE,51,4.0,4.0,89,0.00,,,0.00,Wunderground v.1.15,2014-03-02 14:45:00,
2014-03-02 09:50:00,11.7,9.1,30.26,North,350,3.0,3.0,89,0.00,,,0.00,Wunderground v.1.15,2014-03-02 14:50:00,
2014-03-02 09:55:00,11.8,9.2,30.26,NE,53,3.0,5.0,89,0.00,,,0.00,Wunderground v.1.15,2014-03-02 14:55:00,
2014-03-02 10:05:00,11.9,9.3,30.25,NE,37,4.0,7.0,89,0.00,,,0.00,Wunderground v.1.15,2014-03-02 15:05:00,
2014-03-02 10:15:00,12.1,9.5,30.26,NNE,13,3.0,6.0,89,0.00,,,0.00,Wunderground v.1.15,2014-03-02 15:15:00,
2014-03-02 10:20:00,12.2,9.6,30.26,NNW,340,3.0,3.0,89,0.00,,,0.00,Wunderground v.1.15,2014-03-02 15:20:00,
2014-03-02 10:25:00,12.3,9.7,30.26,North,360,3.0,3.0,89,0.00,,,0.00,Wunderground v.1.15,2014-03-02 15:25:00,
2014-03-02 10:30:00,12.3,9.4,30.27,NNE,32,4.0,4.0,88,0.00,,,0.00,Wunderground v.1.15,2014-03-02 15:30:00,
2014-03-02 10:40:00,12.3,9.4,30.26,North,360,4.0,4.0,88,0.00,,,0.00,Wunderground v.1.15,2014-03-02 15:40:00,
2014-03-02 10:45:00,12.5,9.6,30.26,NNE,26,3.0,4.0,88,0.00,,,0.00,Wunderground v.1.15,2014-03-02 15:45:00,
2014-03-02 10:55:00,12.6,9.7,30.27,NNE,15,3.0,4.0,88,0.00,,,0.00,Wunderground v.1.15,2014-03-02 15:55:00,
2014-03-02 11:00:00,12.8,9.9,30.27,NE,36,3.0,3.0,88,0.00,,,0.00,Wunderground v.1.15,2014-03-02 16:00:00,
2014-03-02 11:05:00,12.8,9.7,30.26,NNW,337,3.0,3.0,87,0.00,,,0.00,Wunderground v.1.15,2014-03-02 16:05:00,
2014-03-02 11:15:00,12.9,9.8,30.26,North,9,3.0,6.0,87,0.00,,,0.00,Wunderground v.1.15,2014-03-02 16:15:00,
2014-03-02 11:20:00,13.0,9.9,30.26,North,360,3.0,3.0,87,0.00,,,0.00,Wunderground v.1.15,2014-03-02 16:20:00,
2014-03-02 11:30:00,13.3,9.9,30.26,NE,37,3.0,3.0,86,0.00,,,0.00,Wunderground v.1.15,2014-03-02 16:30:00,
2014-03-02 11:35:00,13.6,10.2,30.26,NE,50,3.0,3.0,86,0.00,,,0.00,Wunderground v.1.15,2014-03-02 16:35:00,
2014-03-02 11:40:00,13.5,10.1,30.26,NNE,30,3.0,3.0,86,0.00,,,0.00,Wunderground v.1.15,2014-03-02 16:40:00,
2014-03-02 11:45:00,13.3,9.6,30.26,North,360,4.0,6.0,85,0.00,,,0.00,Wunderground v.1.15,2014-03-02 16:45:00,
2014-03-02 11:55:00,13.6,9.9,30.26,North,360,4.0,6.0,85,0.00,,,0.00,Wunderground v.1.15,2014-03-02 16:55:00,
2014-03-02 12:00:00,13.7,10.0,30.26,NE,38,5.0,5.0,85,0.00,,,0.00,Wunderground v.1.15,2014-03-02 17:00:00,
2014-03-02 12:05:00,14.1,10.4,30.26,NNE,28,4.0,5.0,85,0.00,,,0.00,Wunderground v.1.15,2014-03-02 17:05:00,
2014-03-02 12:15:00,14.3,10.4,30.26,North,349,3.0,4.0,84,0.00,,,0.00,Wunderground v.1.15,2014-03-02 17:15:00,
2014-03-02 12:25:00,14.3,10.4,30.26,North,355,3.0,6.0,84,0.00,,,0.00,Wunderground v.1.15,2014-03-02 17:25:00,
2014-03-02 12:30:00,14.3,10.1,30.26,North,355,4.0,4.0,83,0.00,,,0.00,Wunderground v.1.15,2014-03-02 17:30:00,
2014-03-02 12:35:00,14.3,10.1,30.26,North,11,4.0,4.0,83,0.00,,,0.00,Wunderground v.1.15,2014-03-02 17:35:00,
2014-03-02 12:45:00,13.9,9.7,30.26,North,355,6.0,12.0,83,0.00,,,0.00,Wunderground v.1.15,2014-03-02 17:45:00,
2014-03-02 12:50:00,13.7,9.5,30.25,North,355,7.0,7.0,83,0.00,,,0.00,Wunderground v.1.15,2014-03-02 17:50:00,
2014-03-02 12:55:00,13.9,10.0,30.25,North,360,5.0,7.0,84,0.00,,,0.00,Wunderground v.1.15,2014-03-02 17:55:00,
2014-03-02 13:00:00,13.9,10.0,30.25,North,5,4.0,5.0,84,0.00,,,0.00,Wunderground v.1.15,2014-03-02 18:00:00,
2014-03-02 13:05:00,13.7,9.8,30.25,North,350,4.0,6.0,84,0.00,,,0.00,Wunderground v.1.15,2014-03-02 18:05:00,
2014-03-02 13:15:00,13.3,9.1,30.25,North,360,7.0,9.0,83,0.00,,,0.00,Wunderground v.1.15,2014-03-02 18:15:00,
2014-03-02 13:20:00,13.4,9.2,30.25,North,360,6.0,6.0,83,0.00,,,0.00,Wunderground v.1.15,2014-03-02 18:20:00,
2014-03-02 13:25:00,13.7,11.8,30.25,North,349,5.0,6.0,92,0.00,,,0.00,Wunderground v.1.15,2014-03-02 18:25:00,
2014-03-02 13:30:00,13.7,9.5,30.25,North,11,4.0,4.0,83,0.00,,,0.00,Wunderground v.1.15,2014-03-02 18:30:00,
2014-03-02 13:40:00,13.4,9.2,30.25,NW,323,5.0,7.0,83,0.00,,,0.00,Wunderground v.1.15,2014-03-02 18:40:00,
2014-03-02 13:45:00,13.5,9.3,30.25,NNE,19,5.0,8.0,83,0.00,,,0.00,Wunderground v.1.15,2014-03-02 18:45:00,
2014-03-02 13:50:00,13.4,9.2,30.25,North,355,5.0,8.0,83,0.00,,,0.00,Wunderground v.1.15,2014-03-02 18:50:00,
2014-03-02 14:00:00,13.4,9.2,30.25,ENE,72,5.0,6.0,83,0.00,,,0.00,Wunderground v.1.15,2014-03-02 19:00:00,
2014-03-02 14:05:00,13.4,8.9,30.25,NE,43,5.0,6.0,82,0.00,,,0.00,Wunderground v.1.15,2014-03-02 19:05:00,
2014-03-02 14:15:00,13.2,8.7,30.25,NNW,344,6.0,6.0,82,0.00,,,0.00,Wunderground v.1.15,2014-03-02 19:15:00,
2014-03-02 14:20:00,13.1,8.6,30.25,NNE,27,5.0,5.0,82,0.00,,,0.00,Wunderground v.1.15,2014-03-02 19:20:00,
2014-03-02 14:25:00,13.2,8.7,30.25,NNW,340,4.0,7.0,82,0.00,,,0.00,Wunderground v.1.15,2014-03-02 19:25:00,
2014-03-02 14:35:00,13.3,8.6,30.26,NNE,28,4.0,6.0,81,0.00,,,0.00,Wunderground v.1.15,2014-03-02 19:35:00,
2014-03-02 14:40:00,13.3,8.6,30.26,NNE,25,4.0,7.0,81,0.00,,,0.00,Wunderground v.1.15,2014-03-02 19:40:00,
2014-03-02 14:45:00,13.1,8.1,30.26,NW,315,5.0,7.0,80,0.00,,,0.00,Wunderground v.1.15,2014-03-02 19:45:00,
2014-03-02 14:55:00,13.1,7.8,30.25,North,349,6.0,9.0,79,0.00,,,0.00,Wunderground v.1.15,2014-03-02 19:55:00,
2014-03-02 15:00:00,13.2,7.9,30.25,NNE,19,6.0,6.0,79,0.00,,,0.00,Wunderground v.1.15,2014-03-02 20:00:00,
2014-03-02 15:05:00,13.7,8.4,30.26,NE,40,4.0,6.0,79,0.00,,,0.00,Wunderground v.1.15,2014-03-02 20:05:00,
2014-03-02 15:15:00,13.6,7.7,30.26,NNE,14,4.0,4.0,77,0.00,,,0.00,Wunderground v.1.15,2014-03-02 20:15:00,
2014-03-02 15:25:00,13.4,7.5,30.26,North,5,4.0,4.0,77,0.00,,,0.00,Wunderground v.1.15,2014-03-02 20:25:00,
2014-03-02 15:30:00,13.6,8.0,30.26,NNE,24,2.0,2.0,78,0.00,,,0.00,Wunderground v.1.15,2014-03-02 20:30:00,
2014-03-02 15:35:00,13.4,7.5,30.26,NW,324,3.0,4.0,77,0.00,,,0.00,Wunderground v.1.15,2014-03-02 20:35:00,
2014-03-02 15:40:00,13.4,7.5,30.27,North,355,5.0,8.0,77,0.00,,,0.00,Wunderground v.1.15,2014-03-02 20:40:00,
2014-03-02 15:50:00,13.8,7.6,30.27,NE,49,4.0,4.0,76,0.00,,,0.00,Wunderground v.1.15,2014-03-02 20:50:00,
2014-03-02 15:55:00,13.6,7.1,30.27,NNE,31,4.0,4.0,75,0.00,,,0.00,Wunderground v.1.15,2014-03-02 20:55:00,
2014-03-02 16:00:00,13.6,7.1,30.27,NNW,338,4.0,6.0,75,0.00,,,0.00,Wunderground v.1.15,2014-03-02 21:00:00,
2014-03-02 16:05:00,13.5,7.0,30.27,NNW,339,5.0,6.0,75,0.00,,,0.00,Wunderground v.1.15,2014-03-02 21:05:00,
2014-03-02 16:15:00,13.6,7.1,30.26,NE,40,2.0,9.0,75,0.00,,,0.00,Wunderground v.1.15,2014-03-02 21:15:00,
2014-03-02 16:25:00,13.5,6.8,30.26,ENE,63,2.0,8.0,74,0.00,,,0.00,Wunderground v.1.15,2014-03-02 21:25:00,
2014-03-02 16:30:00,13.2,5.9,30.26,NE,34,4.0,4.0,72,0.00,,,0.00,Wunderground v.1.15,2014-03-02 21:30:00,
2014-03-02 16:40:00,13.0,5.4,30.25,North,360,4.0,4.0,71,0.00,,,0.00,Wunderground v.1.15,2014-03-02 21:40:00,
2014-03-02 16:45:00,13.1,5.5,30.26,NE,40,4.0,4.0,71,0.00,,,0.00,Wunderground v.1.15,2014-03-02 21:45:00,
2014-03-02 16:50:00,13.2,5.6,30.26,North,355,3.0,9.0,71,0.00,,,0.00,Wunderground v.1.15,2014-03-02 21:50:00,
2014-03-02 16:55:00,12.9,5.0,30.26,NNW,348,4.0,9.0,70,0.00,,,0.00,Wunderground v.1.15,2014-03-02 21:55:00,
2014-03-02 17:00:00,13.0,5.4,30.26,North,360,4.0,4.0,71,0.00,,,0.00,Wunderground v.1.15,2014-03-02 22:00:00,
2014-03-02 17:05:00,12.9,5.3,30.25,NE,34,3.0,4.0,71,0.00,,,0.00,Wunderground v.1.15,2014-03-02 22:05:00,
2014-03-02 17:15:00,12.8,5.2,30.26,NE,42,2.0,4.0,71,0.00,,,0.00,Wunderground v.1.15,2014-03-02 22:15:00,
2014-03-02 17:20:00,12.6,4.7,30.27,NNE,27,3.0,5.0,70,0.00,,,0.00,Wunderground v.1.15,2014-03-02 22:20:00,
2014-03-02 17:25:00,12.6,5.0,30.26,North,360,3.0,5.0,71,0.00,,,0.00,Wunderground v.1.15,2014-03-02 22:25:00,
2014-03-02 17:30:00,12.6,5.0,30.27,NNE,29,3.0,7.0,71,0.00,,,0.00,Wunderground v.1.15,2014-03-02 22:30:00,
2014-03-02 17:40:00,12.3,4.7,30.28,NNE,14,3.0,5.0,71,0.00,,,0.00,Wunderground v.1.15,2014-03-02 22:40:00,
2014-03-02 17:45:00,12.2,4.9,30.28,NNW,341,4.0,5.0,72,0.00,,,0.00,Wunderground v.1.15,2014-03-02 22:45:00,
2014-03-02 17:50:00,12.2,4.9,30.28,NNW,345,4.0,4.0,72,0.00,,,0.00,Wunderground v.1.15,2014-03-02 22:50:00,
2014-03-02 17:55:00,12.2,4.9,30.27,NE,34,3.0,4.0,72,0.00,,,0.00,Wunderground v.1.15,2014-03-02 22:55:00,
2014-03-02 18:05:00,11.9,4.9,30.28,NNE,17,4.0,4.0,73,0.00,,,0.00,Wunderground v.1.15,2014-03-02 23:05:00,
2014-03-02 18:15:00,11.8,5.1,30.29,NNE,26,3.0,3.0,74,0.00,,,0.00,Wunderground v.1.15,2014-03-02 23:15:00,
2014-03-02 18:20:00,11.8,5.1,30.29,North,11,3.0,4.0,74,0.00,,,0.00,Wunderground v.1.15,2014-03-02 23:20:00,
2014-03-02 18:30:00,11.6,4.9,30.29,NNE,19,3.0,3.0,74,0.00,,,0.00,Wunderground v.1.15,2014-03-02 23:30:00,
2014-03-02 18:35:00,11.6,4.9,30.28,NNE,22,3.0,3.0,74,0.00,,,0.00,Wunderground v.1.15,2014-03-02 23:35:00,
2014-03-02 18:40:00,11.6,4.6,30.28,NNE,21,4.0,5.0,73,0.00,,,0.00,Wunderground v.1.15,2014-03-02 23:40:00,
2014-03-02 18:45:00,11.5,4.8,30.28,NE,41,4.0,5.0,74,0.00,,,0.00,Wunderground v.1.15,2014-03-02 23:45:00,
2014-03-02 18:55:00,11.4,4.7,30.28,NE,46,2.0,3.0,74,0.00,,,0.00,Wunderground v.1.15,2014-03-02 23:55:00,
2014-03-02 19:00:00,11.4,4.7,30.28,NNE,28,2.0,6.0,74,0.00,,,0.00,Wunderground v.1.15,2014-03-03 00:00:00,
2014-03-02 19:05:00,11.4,4.7,30.27,NNE,12,3.0,6.0,74,0.00,,,0.00,Wunderground v.1.15,2014-03-03 00:05:00,
2014-03-02 19:15:00,11.3,4.6,30.27,NE,38,3.0,3.0,74,0.00,,,0.00,Wunderground v.1.15,2014-03-03 00:15:00,
2014-03-02 19:25:00,11.3,4.6,30.28,NNE,19,2.0,6.0,74,0.00,,,0.00,Wunderground v.1.15,2014-03-03 00:25:00,
2014-03-02 19:30:00,11.3,4.6,30.29,NNE,29,2.0,2.0,74,0.00,,,0.00,Wunderground v.1.15,2014-03-03 00:30:00,
2014-03-02 19:35:00,11.4,5.0,30.28,NNE,15,2.0,5.0,75,0.00,,,0.00,Wunderground v.1.15,2014-03-03 00:35:00,
2014-03-02 19:45:00,11.3,5.2,30.29,NNE,18,4.0,8.0,76,0.00,,,0.00,Wunderground v.1.15,2014-03-03 00:45:00,
2014-03-02 19:50:00,11.3,5.2,30.29,ENE,60,4.0,4.0,76,0.00,,,0.00,Wunderground v.1.15,2014-03-03 00:50:00,
2014-03-02 19:55:00,11.3,5.5,30.30,NE,42,3.0,4.0,77,0.00,,,0.00,Wunderground v.1.15,2014-03-03 00:55:00,
2014-03-02 20:00:00,11.2,5.1,30.30,North,5,3.0,3.0,76,0.00,,,0.00,Wunderground v.1.15,2014-03-03 01:00:00,
2014-03-02 20:05:00,11.2,5.4,30.30,NNW,336,2.0,5.0,77,0.00,,,0.00,Wunderground v.1.15,2014-03-03 01:05:00,
2014-03-02 20:15:00,11.1,5.3,30.31,NNE,15,4.0,4.0,77,0.00,,,0.00,Wunderground v.1.15,2014-03-03 01:15:00,
2014-03-02 20:20:00,11.0,4.9,30.31,North,355,4.0,4.0,76,0.00,,,0.00,Wunderground v.1.15,2014-03-03 01:20:00,
2014-03-02 20:25:00,11.0,5.2,30.31,NE,39,3.0,4.0,77,0.00,,,0.00,Wunderground v.1.15,2014-03-03 01:25:00,
2014-03-02 20:30:00,11.0,5.2,30.31,NNE,25,2.0,2.0,77,0.00,,,0.00,Wunderground v.1.15,2014-03-03 01:30:00,
2014-03-02 20:40:00,10.9,5.1,30.31,NNE,14,2.0,4.0,77,0.00,,,0.00,Wunderground v.1.15,2014-03-03 01:40:00,
2014-03-02 20:45:00,10.9,5.1,30.30,NE,41,2.0,6.0,77,0.00,,,0.00,Wunderground v.1.15,2014-03-03 01:45:00,
2014-03-02 20:50:00,10.8,5.0,30.30,NE,43,2.0,4.0,77,0.00,,,0.00,Wunderground v.1.15,2014-03-03 01:50:00,
2014-03-02 21:00:00,10.8,5.0,30.30,NNE,23,2.0,2.0,77,0.00,,,0.00,Wunderground v.1.15,2014-03-03 02:00:00,
2014-03-02 21:05:00,10.7,4.9,30.30,NNE,24,2.0,2.0,77,0.00,,,0.00,Wunderground v.1.15,2014-03-03 02:05:00,
2014-03-02 21:15:00,10.7,4.9,30.30,NNE,13,2.0,4.0,77,0.00,,,0.00,Wunderground v.1.15,2014-03-03 02:15:00,
2014-03-02 21:20:00,10.7,4.9,30.30,NNE,13,1.0,1.0,77,0.00,,,0.00,Wunderground v.1.15,2014-03-03 02:20:00,
2014-03-02 21:25:00,10.7,4.9,30.30,NNE,13,1.0,1.0,77,0.00,,,0.00,Wunderground v.1.15,2014-03-03 02:25:00,
2014-03-02 21:35:00,10.6,4.8,30.30,NNE,21,1.0,1.0,77,0.00,,,0.00,Wunderground v.1.15,2014-03-03 02:35:00,
2014-03-02 21:40:00,10.7,4.9,30.31,North,5,1.0,1.0,77,0.00,,,0.00,Wunderground v.1.15,2014-03-03 02:40:00,
2014-03-02 21:45:00,10.7,4.9,30.31,NNE,24,2.0,3.0,77,0.00,,,0.00,Wunderground v.1.15,2014-03-03 02:45:00,
2014-03-02 21:55:00,10.7,4.9,30.32,North,11,2.0,2.0,77,0.00,,,0.00,Wunderground v.1.15,2014-03-03 02:55:00,
2014-03-02 22:00:00,10.6,4.8,30.31,NNE,14,2.0,3.0,77,0.00,,,0.00,Wunderground v.1.15,2014-03-03 03:00:00,
2014-03-02 22:05:00,10.6,4.8,30.32,NNE,24,2.0,3.0,77,0.00,,,0.00,Wunderground v.1.15,2014-03-03 03:05:00,
2014-03-02 22:15:00,10.5,4.7,30.32,North,5,2.0,2.0,77,0.00,,,0.00,Wunderground v.1.15,2014-03-03 03:15:00,
2014-03-02 22:20:00,10.5,4.4,30.31,North,11,2.0,2.0,76,0.00,,,0.00,Wunderground v.1.15,2014-03-03 03:20:00,
2014-03-02 22:30:00,10.4,4.3,30.31,NNE,26,2.0,5.0,76,0.00,,,0.00,Wunderground v.1.15,2014-03-03 03:30:00,
2014-03-02 22:35:00,10.3,4.2,30.31,NNE,26,2.0,5.0,76,0.00,,,0.00,Wunderground v.1.15,2014-03-03 03:35:00,
2014-03-02 22:40:00,10.3,4.2,30.30,NNE,26,1.0,5.0,76,0.00,,,0.00,Wunderground v.1.15,2014-03-03 03:40:00,
2014-03-02 22:50:00,10.1,4.0,30.30,NNE,19,2.0,3.0,76,0.00,,,0.00,Wunderground v.1.15,2014-03-03 03:50:00,
2014-03-02 22:55:00,10.1,3.8,30.30,NE,40,2.0,3.0,75,0.00,,,0.00,Wunderground v.1.15,2014-03-03 03:55:00,
2014-03-02 23:00:00,10.1,4.0,30.30,NNW,342,2.0,7.0,76,0.00,,,0.00,Wunderground v.1.15,2014-03-03 04:00:00,
2014-03-02 23:05:00,10.0,3.9,30.30,NNE,25,2.0,7.0,76,0.00,,,0.00,Wunderground v.1.15,2014-03-03 04:05:00,
2014-03-02 23:15:00,9.9,3.8,30.31,NNE,15,1.0,5.0,76,0.00,,,0.00,Wunderground v.1.15,2014-03-03 04:15:00,
2014-03-02 23:20:00,9.9,3.8,30.31,NNE,30,2.0,2.0,76,0.00,,,0.00,Wunderground v.1.15,2014-03-03 04:20:00,
2014-03-02 23:25:00,9.8,3.5,30.33,NNE,30,2.0,2.0,75,0.00,,,0.00,Wunderground v.1.15,2014-03-03 04:25:00,
2014-03-02 23:30:00,9.8,3.7,30.33,NNE,30,0.0,0.0,76,0.00,,,0.00,Wunderground v.1.15,2014-03-03 04:30:00,
2014-03-02 23:35:00,9.7,3.7,30.33,NNE,30,1.0,1.0,76,0.00,,,0.00,Wunderground v.1.15,2014-03-03 04:35:00,
2014-03-02 23:45:00,9.6,3.6,30.33,NNE,14,2.0,3.0,76,0.00,,,0.00,Wunderground v.1.15,2014-03-03 04:45:00,
2014-03-02 23:50:00,9.6,3.6,30.33,North,360,2.0,5.0,76,0.00,,,0.00,Wunderground v.1.15,2014-03-03 04:50:00,
2014-03-02 23:55:00,9.6,3.6,30.32,NNE,30,2.0,5.0,76,0.00,,,0.00,Wunderground v.1.15,2014-03-03 04:55:00,